TimeCST,TemperatureF,Dew PointF,Humidity,Sea Level PressureIn,VisibilityMPH,Wind Direction,Wind SpeedMPH,Gust SpeedMPH,PrecipitationIn,Events,Conditions,WindDirDegrees,DateUTC
12:53 AM,16.0,12.9,88,30.09,10.0,SSW,5.8,-,N/A,,Clear,210,2012-12-11 06:53:00
1:53 AM,18.0,14.0,84,30.09,10.0,SW,6.9,-,N/A,,Clear,220,2012-12-11 07:53:00
2:53 AM,17.1,14.0,88,30.08,10.0,SW,6.9,-,N/A,,Clear,220,2012-12-11 08:53:00
3:53 AM,16.0,12.0,84,30.08,10.0,SW,5.8,-,N/A,,Clear,220,2012-12-11 09:53:00
4:53 AM,17.1,12.9,84,30.09,10.0,SW,4.6,-,N/A,,Clear,220,2012-12-11 10:53:00
5:53 AM,18.0,14.0,84,30.09,10.0,SSW,8.1,-,N/A,,Clear,200,2012-12-11 11:53:00
6:53 AM,18.0,14.0,84,30.10,10.0,SSW,9.2,-,N/A,,Clear,210,2012-12-11 12:53:00
7:53 AM,21.0,16.0,81,30.12,10.0,South,9.2,-,N/A,,Clear,190,2012-12-11 13:53:00
8:53 AM,24.1,17.1,75,30.13,10.0,SSW,12.7,-,N/A,,Clear,200,2012-12-11 14:53:00
9:53 AM,27.0,19.0,72,30.14,10.0,SW,11.5,-,N/A,,Clear,220,2012-12-11 15:53:00
10:53 AM,32.0,17.1,54,30.14,10.0,SW,11.5,-,N/A,,Clear,220,2012-12-11 16:53:00
11:53 AM,34.0,17.1,50,30.13,10.0,SW,6.9,-,N/A,,Clear,230,2012-12-11 17:53:00
12:53 PM,37.9,18.0,45,30.12,10.0,SSW,6.9,-,N/A,,Clear,210,2012-12-11 18:53:00
1:53 PM,39.9,18.0,41,30.09,10.0,South,4.6,-,N/A,,Clear,190,2012-12-11 19:53:00
2:53 PM,41.0,17.1,38,30.09,10.0,WSW,4.6,-,N/A,,Clear,240,2012-12-11 20:53:00
3:53 PM,39.9,19.9,45,30.11,10.0,SSW,4.6,-,N/A,,Clear,200,2012-12-11 21:53:00
4:53 PM,36.0,18.0,48,30.12,10.0,Calm,Calm,-,N/A,,Clear,0,2012-12-11 22:53:00
5:53 PM,30.9,18.0,59,30.13,10.0,Calm,Calm,-,N/A,,Clear,0,2012-12-11 23:53:00
6:53 PM,21.0,16.0,81,30.16,10.0,South,3.5,-,N/A,,Clear,190,2012-12-12 00:53:00
7:53 PM,28.0,18.0,66,30.17,10.0,Calm,Calm,-,N/A,,Clear,0,2012-12-12 01:53:00
8:53 PM,25.0,16.0,69,30.18,10.0,SW,6.9,-,N/A,,Clear,220,2012-12-12 02:53:00
9:53 PM,24.1,16.0,71,30.19,10.0,SW,6.9,-,N/A,,Clear,220,2012-12-12 03:53:00
10:53 PM,24.1,17.1,75,30.20,10.0,SW,6.9,-,N/A,,Clear,220,2012-12-12 04:53:00
11:53 PM,21.9,16.0,78,30.22,10.0,SW,6.9,-,N/A,,Clear,220,2012-12-12 05:53:00